[[{"header":{"parameterUnit":"m.s-1","parameterCategory":1,"la1":30.2991,"la2":30.254,"lo1":-89.0895,"lo2":-89.0444,"dy":0.0017,"dx":0.0017,"nx":28,"ny":28,"refTime":"2026-01-09T03:00:00:Z","depth":0,"parameterNumber":2,"parameterNumberName":"U-component_of_WINDS"},"data":[0,0,0,0,0,0,0,0,0,0,0,0,0,0,0,0,0,0,0,0,0,0,0,0,0,0,0,0,0,0,0,0,0,0,0,0,0,0,0,0,0,0,0,0,0,0,0,0,0,0,0,0,0,0,0,0,0,0,-2.5345,-2.5346,0,-2.5435,-2.5436,-2.5437,-2.5455,-2.5454,-2.5453,-2.5453,-2.5549,-2.5552,-2.5555,0,0,0,0,0,0,0,0,0,0,0,0,0,-2.5192,-2.5194,-2.5345,-2.5346,-2.5347,-2.5435,-2.5436,-2.5438,-2.5455,-2.5454,-2.5453,-2.5452,-2.5548,-2.5552,-2.5556,0,0,0,0,0,0,0,0,0,0,0,0,0,-2.5268,-2.5195,-2.5345,-2.5366,-2.5369,-2.5435,-2.5436,-2.5438,-2.5455,-2.5454,-2.5453,-2.5452,-2.5547,-2.5551,-2.5556,-2.5608,0,0,-2.5571,-2.5573,0,0,0,0,0,0,0,0,-2.5264,-2.5274,-2.5362,-2.5365,-2.5368,-2.5432,-2.5418,-2.5495,-2.5455,-2.5423,-2.5453,-2.5451,-2.5511,-2.5519,-2.5539,-2.5613,-2.5617,-2.5572,-2.5575,-2.5577,-2.5578,0,0,0,0,0,0,0,-2.5258,-2.527,-2.5381,-2.5363,-2.5367,-2.5373,-2.5382,-2.5433,-2.5472,-2.5425,-2.5427,-2.5437,-2.5513,-2.5534,-2.5541,-2.5618,-2.5571,-2.5576,-2.5579,-2.5581,-2.574,-2.5741,0,0,0,0,0,0,-2.5249,-2.5265,-2.5378,-2.5383,-2.5312,-2.5377,-2.5387,-2.5413,-2.5472,-2.5479,-2.5438,-2.5437,-2.5526,-2.5535,-2.5544,-2.5609,-2.5577,-2.5581,-2.5584,-2.5739,-2.574,-2.5742,0,0,0,0,0,0,-2.5245,-2.5258,-2.5374,-2.5325,-2.534,-2.538,-2.5409,-2.5415,-2.5436,-2.5481,-2.5489,-2.5452,-2.5526,-2.5538,-2.5592,-2.5612,-2.5583,-2.5588,-2.5737,-2.5739,-2.5741,-2.5738,0,0,0,0,0,0,-2.5241,-2.5257,-2.5276,-2.5325,-2.5342,-2.5419,-2.541,-2.5418,-2.5444,-2.5444,-2.5496,-2.5503,-2.5526,-2.5585,-2.5597,-2.5618,-2.5592,-2.5736,-2.5738,-2.574,-2.5736,-2.5739,-2.5742,0,0,0,0,0,-2.5235,-2.5272,-2.5277,-2.529,-2.5367,-2.542,-2.543,-2.5454,-2.5446,-2.5466,-2.5495,-2.5502,-2.5608,-2.559,-2.5604,-2.5627,-2.5734,-2.5737,-2.574,-2.5735,-2.5739,-2.5742,0,0,0,0,0,0,-2.5226,-2.5279,-2.5285,-2.5338,-2.5374,-2.5423,-2.5448,-2.5457,-2.5497,-2.5496,-2.5525,-2.5536,-2.5589,-2.5614,-2.5593,-2.5681,-2.5671,-2.5677,-2.5662,-2.5666,-2.5669,-2.5661,-2.5596,0,0,0,0,0,-2.523,-2.5267,-2.5312,-2.5355,-2.5373,-2.5408,-2.5432,-2.5447,-2.5486,-2.5501,-2.5534,-2.5573,-2.5615,-2.5643,-2.5684,-2.5741,-2.5752,-2.5764,-2.5767,-2.5769,-2.5773,-2.5805,-2.5811,-2.5752,-2.5752,-2.5751,0,0,-2.5239,-2.5272,-2.5294,-2.5354,-2.5384,-2.5423,-2.542,-2.5462,-2.5491,-2.5508,-2.5561,-2.5587,-2.5632,-2.5687,-2.5714,-2.571,-2.5792,-2.5773,-2.5774,-2.5777,-2.5809,-2.5814,-2.5819,-2.5754,-2.5753,-2.5753,0,0,-2.5274,-2.5304,-2.5342,-2.5372,-2.5417,-2.544,-2.5449,-2.5496,-2.5514,-2.5567,-2.558,-2.5617,-2.5689,-2.5721,-2.5746,-2.5796,-2.5804,-2.5809,-2.5823,-2.5854,-2.5859,-2.5863,-2.588,-2.5886,-2.5813,-2.5813,-2.5813,0,-2.528,-2.5338,-2.5362,-2.5402,-2.5429,-2.5445,-2.5485,-2.5514,-2.557,-2.5588,-2.5583,-2.5674,-2.5706,-2.5769,-2.5781,-2.5802,-2.5814,-2.5802,-2.5856,-2.5861,-2.5865,-2.5881,-2.5888,-2.5813,-2.5813,-2.5813,-2.5813,0,-2.5342,-2.5382,-2.5409,-2.5461,-2.5491,-2.5531,-2.5563,-2.559,-2.5604,-2.5628,-2.5682,-2.5721,-2.5771,-2.5787,-2.5801,-2.5853,-2.5849,-2.585,-2.584,-2.587,-2.5886,-2.5893,-2.5814,-2.5814,-2.5814,-2.5813,0,0,-2.5373,-2.5438,-2.5447,-2.5471,-2.5522,-2.5555,-2.5597,-2.5644,-2.5667,-2.5706,-2.5742,-2.5804,-2.5805,-2.5834,-2.5852,-2.5879,-2.5915,-2.5877,-2.5878,-2.5881,-2.5974,-2.5972,-2.5979,-2.5921,-2.5923,-2.5924,-2.597,0,-2.5414,-2.5487,-2.551,-2.5572,-2.561,-2.5626,-2.5663,-2.5699,-2.5723,-2.576,-2.5788,-2.583,-2.5829,-2.5846,-2.5874,-2.5904,-2.5934,-2.5902,-2.5956,-2.5957,-2.5942,-2.5988,-2.5986,-2.6027,-2.5977,-2.5978,-2.5979,0,-2.5471,-2.5509,-2.5574,-2.562,-2.5637,-2.5669,-2.5714,-2.5749,-2.5791,-2.5807,-2.584,-2.5856,-2.5902,-2.5891,-2.5955,-2.5933,-2.5957,-2.5975,-2.5978,-2.5982,-2.5969,-2.5993,-2.6041,-2.6047,-2.5989,-2.5988,-2.5987,0,-2.5485,-2.5554,-2.5601,-2.5621,-2.5677,-2.5699,-2.5724,-2.5764,-2.5791,-2.5832,-2.585,-2.5896,-2.5921,-2.5958,-2.5986,-2.5975,-2.6048,-2.6039,-2.6063,-2.6062,-2.6076,-2.6074,-2.6128,-2.6094,-2.6093,-2.6093,-2.6093,0,-2.5528,-2.5567,-2.5608,-2.5637,-2.5682,-2.571,-2.5753,-2.5779,-2.5816,-2.5851,-2.587,-2.5903,-2.5939,-2.5978,-2.6001,-2.6051,-2.6063,-2.6077,-2.6082,-2.6075,-2.6072,-2.609,-2.6087,-2.6095,-2.6095,-2.6094,-2.6094,0,-2.5551,-2.558,-2.5633,-2.5681,-2.5694,-2.5725,-2.5767,-2.5797,-2.5822,-2.5867,-2.5879,-2.5919,-2.5966,-2.5998,-2.6058,-2.6074,-2.6127,-2.6133,-2.6112,-2.6115,-2.6136,-2.6133,-2.6201,-2.6212,-2.6171,-2.6172,-2.6172,0,-2.5575,-2.5605,-2.5656,-2.568,-2.5705,-2.5744,-2.5771,-2.5801,-2.5829,-2.5879,-2.5903,-2.5951,-2.599,-2.6064,-2.6099,-2.6146,-2.6152,-2.6173,-2.6159,-2.615,-2.6152,-2.6149,-2.6152,-2.6175,-2.6175,-2.6175,-2.6175,0,-2.5615,-2.5628,-2.5666,-2.5709,-2.5741,-2.5777,-2.5814,-2.5833,-2.5869,-2.59,-2.5947,-2.5977,-2.6039,-2.6086,-2.6136,-2.6163,-2.6175,-2.618,-2.6187,-2.6179,-2.6165,-2.6172,-2.6117,-2.6177,-2.6177,-2.6177,-2.6177,-2.6177,-2.5639,-2.5666,-2.5706,-2.5748,-2.5778,-2.5812,-2.5842,-2.5871,-2.591,-2.5961,-2.5977,-2.6025,-2.6068,-2.6136,-2.6164,-2.6204,-2.6203,-2.6214,-2.6217,-2.6219,-2.6218,-2.616,-2.6214,-2.6213,-2.6213,-2.6213,-2.6213,0,-2.5679,-2.5705,-2.5744,-2.5793,-2.5827,-2.5835,-2.5876,-2.5903,-2.5945,-2.5983,-2.6021,-2.6076,-2.6122,-2.6161,-2.621,-2.6234,-2.6241,-2.6245,-2.6243,-2.6249,-2.6217,-2.6205,-2.6239,-2.6239,-2.6239,-2.6239,-2.6239,-2.6239,-2.5703,-2.575,-2.5768,-2.583,-2.5858,-2.5904,-2.5926,-2.5958,-2.5989,-2.6048,-2.6085,-2.6111,-2.615,-2.6201,-2.6244,-2.6255,-2.6271,-2.6274,-2.6286,-2.6255,-2.6252,-2.6249,-2.6237,-2.6278,-2.6278,-2.6315,-2.6316,-2.6316]},{"header":{"parameterUnit":"m.s-1","parameterCategory":1,"la1":30.2991,"la2":30.254,"lo1":-89.0895,"lo2":-89.0444,"dy":0.0017,"dx":0.0017,"nx":28,"ny":28,"refTime":"2026-01-09T03:00:00:Z","depth":0,"parameterNumber":3,"parameterNumberName":"V-component_of_WINDS"},"data":[0,0,0,0,0,0,0,0,0,0,0,0,0,0,0,0,0,0,0,0,0,0,0,0,0,0,0,0,0,0,0,0,0,0,0,0,0,0,0,0,0,0,0,0,0,0,0,0,0,0,0,0,0,0,0,0,0,0,4.3676,4.3677,0,4.3807,4.3809,4.381,4.3825,4.3824,4.3823,4.3821,4.3957,4.3961,4.3966,0,0,0,0,0,0,0,0,0,0,0,0,0,4.3441,4.3445,4.3676,4.3677,4.3679,4.3807,4.3809,4.381,4.3825,4.3824,4.3822,4.3821,4.3955,4.3961,4.3967,0,0,0,0,0,0,0,0,0,0,0,0,0,4.3555,4.3447,4.3675,4.3702,4.3706,4.3807,4.3809,4.3811,4.3826,4.3824,4.3822,4.382,4.3953,4.396,4.3967,4.4052,0,0,4.399,4.3993,0,0,0,0,0,0,0,0,4.3548,4.3563,4.3696,4.37,4.3705,4.3798,4.3776,4.3892,4.3826,4.378,4.3821,4.3819,4.3906,4.3917,4.3946,4.4058,4.4064,4.399,4.3995,4.3998,4.4,0,0,0,0,0,0,0,4.354,4.3558,4.3728,4.3698,4.3703,4.3708,4.3722,4.3798,4.3852,4.3784,4.3785,4.3801,4.3907,4.3939,4.3949,4.4066,4.399,4.3997,4.4001,4.4004,4.4258,4.426,0,0,0,0,0,0,4.3527,4.3551,4.3724,4.3732,4.362,4.3714,4.373,4.377,4.3851,4.3862,4.3802,4.3801,4.3927,4.394,4.3954,4.406,4.3998,4.4005,4.4009,4.4255,4.4258,4.4261,0,0,0,0,0,0,4.3522,4.3542,4.3718,4.3642,4.3665,4.372,4.3765,4.3773,4.3805,4.3865,4.3875,4.3824,4.3926,4.3943,4.4028,4.4065,4.4008,4.4014,4.4252,4.4256,4.4259,4.4273,0,0,0,0,0,0,4.3515,4.3541,4.3572,4.3642,4.3669,4.379,4.3767,4.3777,4.3817,4.3816,4.3888,4.3898,4.3926,4.4017,4.4035,4.4074,4.402,4.4249,4.4254,4.4258,4.4269,4.4276,4.4282,0,0,0,0,0,4.3507,4.357,4.3574,4.3594,4.3709,4.3792,4.3807,4.3837,4.382,4.3853,4.3892,4.3896,4.4058,4.4026,4.4046,4.4088,4.4247,4.4253,4.4258,4.4266,4.4275,4.4282,0,0,0,0,0,0,4.3503,4.358,4.3585,4.3672,4.3725,4.3794,4.3837,4.3845,4.3904,4.3901,4.3936,4.3952,4.4036,4.407,4.4033,4.4175,4.4151,4.4161,4.415,4.4159,4.4165,4.4157,4.4026,0,0,0,0,0,4.3512,4.3572,4.3636,4.3707,4.3734,4.3781,4.3817,4.3836,4.3893,4.3915,4.3961,4.4016,4.408,4.4121,4.4182,4.4274,4.4291,4.4313,4.4319,4.4324,4.4333,4.4387,4.4398,4.4278,4.4278,4.4278,0,0,4.3532,4.3581,4.3617,4.3708,4.3751,4.3814,4.3799,4.3865,4.3913,4.3925,4.4009,4.4044,4.4108,4.4197,4.4239,4.4228,4.437,4.4331,4.4335,4.4341,4.4394,4.4405,4.4415,4.4282,4.4281,4.4281,0,0,4.3601,4.3643,4.3708,4.3753,4.3819,4.385,4.3865,4.3933,4.3958,4.4042,4.4054,4.4111,4.4218,4.4265,4.4302,4.4391,4.4398,4.441,4.4445,4.4497,4.4507,4.4516,4.455,4.4562,4.4418,4.4418,4.4418,0,4.3617,4.3711,4.3741,4.3808,4.3849,4.3863,4.3932,4.3973,4.4056,4.4084,4.4071,4.4209,4.4253,4.4355,4.4377,4.4405,4.4426,4.4403,4.4503,4.4512,4.4521,4.4554,4.4567,4.4419,4.4419,4.4419,4.4419,0,4.373,4.3795,4.384,4.3921,4.3967,4.4033,4.4075,4.4118,4.4133,4.4166,4.4253,4.4306,4.4381,4.4406,4.442,4.4511,4.4503,4.4495,4.4472,4.4533,4.4565,4.4578,4.4421,4.4421,4.442,4.442,0,0,4.38,4.3897,4.3914,4.3952,4.4027,4.4078,4.4147,4.4219,4.4257,4.4314,4.4374,4.4466,4.4461,4.4504,4.4524,4.4569,4.464,4.4558,4.456,4.4574,4.4747,4.4753,4.4767,4.4644,4.4647,4.4649,4.4742,0,4.388,4.4002,4.4032,4.4137,4.42,4.4215,4.4275,4.4328,4.4361,4.442,4.4456,4.4522,4.4509,4.4535,4.4581,4.4622,4.4676,4.4615,4.4703,4.4706,4.4689,4.4784,4.4791,4.4876,4.4755,4.4757,4.4758,0,4.3989,4.4049,4.4161,4.423,4.4258,4.4311,4.4382,4.4437,4.4498,4.4519,4.4568,4.4584,4.4658,4.4629,4.4733,4.4691,4.4729,4.4754,4.4759,4.477,4.4737,4.48,4.4904,4.4918,4.4778,4.4776,4.4775,0,4.4033,4.4142,4.4224,4.4255,4.4337,4.4375,4.4411,4.447,4.4513,4.4575,4.4604,4.4673,4.4711,4.4765,4.4801,4.4776,4.4903,4.4876,4.4924,4.4924,4.4952,4.495,4.5066,4.4971,4.4971,4.4971,4.4971,0,4.412,4.4189,4.4245,4.4295,4.4373,4.4408,4.4484,4.452,4.4574,4.4633,4.465,4.4705,4.4747,4.4809,4.4837,4.492,4.4937,4.4957,4.4964,4.4957,4.4955,4.4984,4.498,4.4974,4.4974,4.4973,4.4972,0,4.4183,4.4223,4.4314,4.4385,4.4404,4.4459,4.452,4.4571,4.4604,4.4679,4.4698,4.4752,4.4825,4.4865,4.4957,4.4976,4.5071,4.5073,4.505,4.5054,4.5101,4.5097,4.5241,4.5263,4.5151,4.5152,4.5153,0,4.4238,4.4291,4.4368,4.4409,4.4446,4.4511,4.4555,4.4591,4.4637,4.4712,4.4755,4.4829,4.4891,4.5008,4.5056,4.5127,4.5133,4.5178,4.5144,4.5136,4.5138,4.5135,4.5142,4.5185,4.5186,4.5187,4.5188,0,4.4332,4.4349,4.4412,4.4483,4.4535,4.4592,4.4649,4.4682,4.4728,4.4778,4.4854,4.4902,4.4997,4.5072,4.5147,4.5185,4.5196,4.5198,4.5214,4.5209,4.5194,4.5206,4.507,4.5195,4.5194,4.5194,4.5194,4.5193,4.4395,4.4444,4.4507,4.4577,4.4623,4.4677,4.4729,4.4769,4.4833,4.4913,4.493,4.5011,4.5074,4.5176,4.5216,4.5281,4.5272,4.5294,4.53,4.5305,4.5309,4.5182,4.5294,4.5294,4.5294,4.5294,4.5294,0,4.4492,4.4533,4.4597,4.4677,4.4733,4.4737,4.48,4.4847,4.4918,4.4975,4.5036,4.5125,4.5198,4.5251,4.5326,4.5368,4.5375,4.5387,4.5386,4.5395,4.5311,4.5291,4.538,4.538,4.538,4.538,4.538,4.538,4.455,4.4634,4.466,4.4769,4.481,4.4889,4.4926,4.4976,4.5022,4.512,4.5181,4.5215,4.5272,4.5352,4.542,4.5434,4.5462,4.5474,4.5489,4.541,4.5401,4.5392,4.5374,4.5479,4.5479,4.5568,4.5569,4.557]}]]